Temp
65 66 66 66 66 66 65 66 66 67 67 68 69 68 69 67 67 67 67 67 68 68 67 67 67 67 67 67 66 68 68 66 66 66 67 67 66 66 65 65 65 66
64 65 66 66 65 63 63 63 63 64 63 67 69 68 67 67 66 68 67 67 68 67 67 67 67 67 68 68 66 67 67 66 65 66 66 66 66 66 64 64 65 66
65 65 65 65 65 63 63 61 60 61 63 67 67 67 67 67 66 67 67 68 68 67 67 67 67 67 67 67 67 67 67 66 66 66 67 66 66 66 65 66 66 66
65 66 66 67 66 64 63 61 60 61 63 65 67 67 68 67 68 67 67 67 68 67 66 67 67 67 68 68 67 67 67 67 66 66 66 66 66 66 66 66 66 66
66 66 67 67 66 65 64 64 62 62 64 66 65 65 67 67 67 68 67 67 67 67 67 67 66 66 66 67 68 67 67 67 66 67 67 66 66 66 66 66 66 65
66 68 68 67 66 65 65 65 64 63 63 65 65 65 65 66 68 68 67 67 67 67 67 67 67 66 67 67 67 68 68 68 67 67 67 67 67 66 67 67 66 66
65 66 66 67 66 66 66 65 64 64 65 65 66 65 64 64 65 67 68 67 68 68 68 67 67 66 66 67 67 66 67 66 67 67 68 68 67 66 66 66 67 67
66 66 67 67 66 66 66 66 66 66 66 67 66 66 67 67 66 66 68 68 68 68 67 68 68 68 67 68 68 66 66 65 66 66 67 67 66 67 67 66 65 67
66 66 67 66 66 66 67 67 66 66 66 66 67 67 68 67 65 68 69 69 68 68 68 68 68 68 68 67 66 66 66 65 65 65 65 65 66 67 68 68 66 66
66 66 65 66 66 66 66 66 67 67 68 67 68 68 68 68 69 69 68 68 67 68 68 67 67 67 67 67 67 67 66 66 65 65 66 66 65 67 67 66 67 66
64 64 65 65 65 66 66 66 67 67 66 65 64 65 66 66 67 67 65 65 63 64 65 66 67 67 67 67 65 64 65 65 65 66 65 66 66 66 63 65 66 66
64 64 62 61 62 64 65 66 66 66 65 63 66 66 65 64 64 63 64 64 63 64 66 67 64 63 63 64 66 66 65 64 64 64 64 65 66 66 66 66 65 67
63 62 62 62 63 64 65 66 66 66 67 66 67 67 67 65 64 65 64 64 64 65 66 65 64 63 63 64 66 67 66 66 64 64 64 64 65 66 66 66 67 67
62 62 62 63 64 65 66 66 66 67 68 67 67 67 67 67 66 66 66 65 64 64 65 65 65 65 65 66 66 66 66 65 64 63 63 64 65 66 66 66 66 66
63 64 64 65 66 66 66 65 65 65 65 65 64 65 65 66 66 66 66 66 65 64 65 64 63 62 63 64 65 65 66 65 64 64 64 64 64 65 65 65 66 66
64 63 65 66 65 65 65 64 64 64 64 64 64 65 65 64 64 64 65 65 65 65 64 62 62 63 58 51 51 61 65 66 66 66 66 65 64 63 63 63 62 64
64 64 64 64 64 64 64 63 63 63 64 64 63 63 62 63 63 63 63 64 64 64 63 63 62 61 43 42 43 43 56 62 64 66 65 65 65 65 64 62 61 62
64 62 62 62 62 62 61 62 61 61 61 61 60 59 58 59 60 60 60 60 60 61 61 61 60 44 40 40 41 41 45 56 60 62 63 64 66 66 66 65 65 64
63 64 63 62 61 60 59 60 60 59 59 58 58 57 58 58 57 56 57 57 58 58 59 58 60 41 38 38 39 40 40 46 57 58 60 61 62 64 66 66 65 65
63 64 63 62 61 60 60 61 61 61 59 59 57 57 58 57 56 56 55 57 57 57 58 58 58 43 38 37 38 37 37 43 58 56 58 58 59 60 62 64 64 64
64 63 63 62 62 62 63 63 62 61 62 61 61 61 61 61 60 60 58 58 58 58 60 60 57 40 40 39 38 38 37 44 56 54 55 56 56 57 59 60 62 62
63 63 63 63 63 63 63 62 61 61 61 60 60 60 60 60 59 60 60 60 58 59 62 62 57 39 39 39 38 39 41 55 56 57 57 58 58 58 59 61 61 61
62 61 59 60 62 63 62 61 60 59 58 60 61 61 61 60 59 59 59 60 60 61 62 62 62 47 38 39 39 39 49 61 60 61 59 58 57 57 59 59 58 60
62 62 60 58 59 61 61 59 60 61 61 62 64 62 61 60 60 59 58 58 58 58 57 60 60 48 39 40 40 39 50 62 62 61 58 57 56 56 58 57 53 46
60 60 59 58 59 58 58 60 61 61 61 61 62 63 59 59 60 61 59 58 56 55 47 54 59 52 40 39 39 40 53 63 63 62 59 57 58 56 56 57 55 49
60 60 61 62 64 61 60 61 60 59 59 60 58 60 60 59 59 61 60 57 55 56 54 54 57 58 49 36 41 40 42 60 63 62 59 56 58 58 57 56 55 54
MSLP
1017.94 1018.02 1018.14 1018.30 1018.54 1018.74 1019.06 1019.34 1019.62 1019.86 1020.06 1020.18 1020.38 1020.62 1020.78 1021.02 1021.10 1021.14 1021.18 1021.18 1021.22 1021.30 1021.42 1021.54 1021.62 1021.66 1021.70 1021.70 1021.74 1021.66 1021.70 1021.94 1021.98 1022.02 1021.98 1021.94 1021.98 1021.98 1022.06 1022.06 1022.02 1021.94
1017.98 1018.06 1018.18 1018.34 1018.66 1018.94 1019.18 1019.34 1019.62 1019.82 1020.10 1020.22 1020.34 1020.62 1020.86 1020.98 1021.10 1021.10 1021.22 1021.30 1021.34 1021.38 1021.42 1021.54 1021.62 1021.70 1021.78 1021.82 1021.90 1021.90 1022.02 1022.14 1022.30 1022.34 1022.30 1022.38 1022.38 1022.30 1022.38 1022.34 1022.26 1022.14
1018.06 1018.14 1018.26 1018.38 1018.62 1018.98 1019.22 1019.50 1019.70 1019.86 1019.98 1020.14 1020.38 1020.58 1020.82 1020.94 1021.10 1021.18 1021.26 1021.34 1021.42 1021.50 1021.58 1021.62 1021.70 1021.78 1021.82 1021.90 1021.98 1022.02 1022.14 1022.26 1022.38 1022.46 1022.46 1022.62 1022.62 1022.58 1022.62 1022.50 1022.38 1022.30
1018.02 1017.98 1018.02 1018.18 1018.42 1018.82 1019.18 1019.50 1019.82 1019.98 1020.02 1020.18 1020.30 1020.50 1020.70 1020.90 1020.98 1021.22 1021.34 1021.42 1021.50 1021.62 1021.70 1021.74 1021.78 1021.86 1021.86 1021.94 1021.94 1022.02 1022.18 1022.30 1022.46 1022.54 1022.62 1022.74 1022.82 1022.82 1022.86 1022.78 1022.74 1022.58
1017.86 1017.90 1017.94 1018.14 1018.42 1018.74 1019.06 1019.34 1019.62 1019.90 1019.98 1020.02 1020.30 1020.54 1020.66 1020.82 1020.94 1021.10 1021.30 1021.46 1021.54 1021.66 1021.74 1021.82 1021.86 1021.94 1021.94 1021.90 1021.90 1022.02 1022.18 1022.30 1022.50 1022.54 1022.58 1022.74 1022.86 1022.94 1022.98 1022.90 1022.94 1022.90
1017.82 1017.78 1017.86 1018.06 1018.38 1018.74 1019.14 1019.34 1019.58 1019.86 1019.98 1020.10 1020.30 1020.50 1020.70 1020.86 1020.86 1020.98 1021.18 1021.38 1021.54 1021.70 1021.82 1021.78 1021.82 1021.90 1021.86 1021.90 1021.94 1022.02 1022.14 1022.22 1022.46 1022.54 1022.58 1022.66 1022.78 1022.90 1022.98 1022.98 1022.98 1022.98
1017.74 1017.82 1017.86 1018.02 1018.34 1018.62 1018.98 1019.26 1019.50 1019.66 1019.82 1019.94 1020.14 1020.38 1020.62 1020.82 1020.94 1020.90 1021.02 1021.26 1021.46 1021.58 1021.70 1021.78 1021.82 1021.90 1021.90 1021.90 1021.98 1022.14 1022.26 1022.38 1022.42 1022.46 1022.46 1022.50 1022.62 1022.78 1022.90 1022.94 1022.90 1022.98
1017.58 1017.74 1017.86 1017.94 1018.26 1018.58 1018.90 1019.22 1019.38 1019.42 1019.50 1019.66 1019.98 1020.22 1020.30 1020.46 1020.62 1020.82 1020.86 1020.98 1021.26 1021.46 1021.62 1021.70 1021.70 1021.74 1021.86 1021.86 1021.94 1022.10 1022.22 1022.38 1022.46 1022.46 1022.42 1022.42 1022.50 1022.50 1022.62 1022.78 1022.90 1022.86
1017.54 1017.74 1017.90 1018.02 1018.22 1018.46 1018.78 1019.06 1019.22 1019.34 1019.38 1019.46 1019.66 1019.98 1020.14 1020.26 1020.50 1020.58 1020.66 1020.82 1021.02 1021.22 1021.38 1021.58 1021.62 1021.70 1021.74 1021.82 1022.02 1022.10 1022.14 1022.22 1022.30 1022.34 1022.42 1022.46 1022.46 1022.38 1022.34 1022.50 1022.70 1022.74
1017.50 1017.66 1017.86 1018.06 1018.26 1018.38 1018.62 1018.86 1019.06 1019.10 1019.14 1019.30 1019.46 1019.66 1019.90 1020.06 1020.10 1020.18 1020.42 1020.70 1020.90 1021.06 1021.22 1021.38 1021.50 1021.58 1021.66 1021.70 1021.74 1021.90 1022.02 1022.06 1022.26 1022.34 1022.30 1022.34 1022.46 1022.50 1022.42 1022.50 1022.46 1022.54
1017.58 1017.82 1018.14 1018.34 1018.34 1018.38 1018.50 1018.70 1018.90 1018.98 1019.10 1019.30 1019.50 1019.62 1019.78 1019.94 1020.06 1020.14 1020.30 1020.38 1020.66 1020.90 1020.98 1021.14 1021.26 1021.34 1021.38 1021.42 1021.62 1021.86 1022.02 1022.02 1022.10 1022.14 1022.22 1022.22 1022.26 1022.30 1022.46 1022.50 1022.46 1022.50
1017.62 1017.94 1018.30 1018.58 1018.62 1018.50 1018.46 1018.58 1018.78 1018.90 1019.06 1019.22 1019.30 1019.50 1019.74 1019.82 1019.90 1020.02 1019.90 1019.98 1020.22 1020.46 1020.62 1020.86 1021.14 1021.38 1021.42 1021.38 1021.42 1021.58 1021.78 1021.90 1021.98 1022.06 1022.10 1022.14 1022.10 1022.14 1022.22 1022.34 1022.46 1022.38
1017.66 1017.98 1017.98 1018.18 1018.34 1018.42 1018.54 1018.62 1018.74 1018.82 1018.86 1019.02 1019.18 1019.30 1019.54 1019.66 1019.82 1019.86 1019.94 1019.98 1020.18 1020.30 1020.50 1020.78 1020.98 1021.18 1021.30 1021.30 1021.38 1021.46 1021.62 1021.74 1021.86 1021.94 1021.98 1022.02 1021.98 1021.94 1022.02 1022.10 1022.14 1022.18
1017.78 1017.94 1018.06 1018.22 1018.34 1018.54 1018.66 1018.66 1018.70 1018.70 1018.70 1018.86 1019.06 1019.26 1019.38 1019.46 1019.58 1019.66 1019.82 1020.10 1020.26 1020.42 1020.50 1020.70 1020.82 1020.90 1021.06 1021.18 1021.34 1021.42 1021.54 1021.62 1021.70 1021.78 1021.78 1021.74 1021.74 1021.74 1021.86 1021.94 1021.98 1022.02
1017.82 1017.90 1018.02 1018.10 1018.30 1018.42 1018.58 1018.70 1018.70 1018.78 1018.86 1018.98 1019.18 1019.26 1019.34 1019.38 1019.46 1019.54 1019.66 1019.86 1020.14 1020.30 1020.46 1020.66 1020.86 1021.06 1021.14 1021.26 1021.38 1021.38 1021.42 1021.50 1021.54 1021.50 1021.54 1021.54 1021.58 1021.62 1021.70 1021.86 1021.86 1021.82
1017.82 1017.98 1018.02 1018.06 1018.30 1018.38 1018.46 1018.70 1018.74 1018.86 1018.94 1019.06 1019.22 1019.26 1019.38 1019.50 1019.58 1019.62 1019.70 1019.82 1019.98 1020.18 1020.38 1020.62 1020.82 1020.94 1021.26 1021.62 1021.78 1021.62 1021.38 1021.26 1021.22 1021.22 1021.30 1021.38 1021.46 1021.54 1021.66 1021.86 1022.14 1021.94
1018.02 1018.06 1018.10 1018.14 1018.26 1018.42 1018.54 1018.74 1018.86 1018.94 1019.02 1019.14 1019.34 1019.42 1019.54 1019.66 1019.66 1019.70 1019.82 1019.98 1020.06 1020.22 1020.42 1020.62 1020.74 1021.06 1021.66 1021.86 1021.90 1021.98 1021.78 1021.42 1021.26 1021.10 1021.18 1021.26 1021.34 1021.38 1021.50 1021.74 1021.90 1021.70
1018.06 1018.26 1018.34 1018.38 1018.46 1018.62 1018.82 1018.90 1019.06 1019.14 1019.30 1019.46 1019.66 1019.82 1020.02 1020.02 1019.98 1020.02 1020.18 1020.30 1020.38 1020.46 1020.54 1020.70 1020.98 1021.74 1021.74 1021.74 1021.82 1021.94 1022.02 1021.74 1021.46 1021.30 1021.22 1021.14 1021.10 1021.14 1021.18 1021.26 1021.30 1021.30
1018.26 1018.30 1018.34 1018.50 1018.70 1018.86 1019.06 1019.14 1019.18 1019.38 1019.58 1019.78 1019.90 1019.98 1019.98 1019.94 1020.14 1020.26 1020.38 1020.50 1020.54 1020.66 1020.74 1021.02 1021.10 1021.66 1021.66 1021.74 1021.78 1021.86 1021.98 1021.98 1021.70 1021.62 1021.50 1021.34 1021.26 1021.18 1021.14 1021.18 1021.22 1021.26
1018.42 1018.46 1018.54 1018.70 1018.82 1018.98 1019.10 1019.10 1019.10 1019.22 1019.50 1019.62 1019.82 1020.02 1019.98 1020.10 1020.22 1020.30 1020.50 1020.58 1020.66 1020.66 1020.94 1021.26 1021.34 1021.78 1021.94 1022.02 1021.98 1021.94 1022.10 1022.10 1021.70 1021.74 1021.70 1021.62 1021.58 1021.46 1021.34 1021.22 1021.34 1021.34
1018.46 1018.58 1018.70 1018.86 1018.90 1018.94 1018.94 1018.98 1019.10 1019.22 1019.26 1019.46 1019.62 1019.66 1019.62 1019.74 1019.90 1020.02 1020.30 1020.50 1020.74 1020.82 1020.70 1020.86 1021.22 1021.74 1021.74 1021.78 1021.86 1021.98 1022.14 1022.02 1021.82 1021.86 1021.86 1021.82 1021.82 1021.82 1021.70 1021.62 1021.54 1021.54
1018.78 1018.78 1018.86 1018.94 1019.02 1019.06 1019.10 1019.26 1019.38 1019.46 1019.54 1019.74 1019.78 1019.90 1020.06 1020.14 1020.34 1020.34 1020.38 1020.54 1020.78 1020.78 1020.62 1020.74 1021.26 1021.74 1021.82 1021.74 1021.74 1021.90 1021.94 1021.62 1021.66 1021.62 1021.66 1021.66 1021.74 1021.78 1021.74 1021.62 1021.62 1021.54
1019.22 1019.34 1019.42 1019.46 1019.42 1019.38 1019.46 1019.58 1019.74 1019.94 1020.02 1019.98 1019.94 1020.02 1020.14 1020.26 1020.46 1020.66 1020.78 1020.74 1020.78 1020.74 1020.66 1020.78 1020.98 1021.46 1021.58 1021.78 1021.70 1021.82 1021.54 1021.26 1021.34 1021.30 1021.54 1021.74 1021.94 1021.98 1021.82 1021.86 1021.90 1021.74
1018.66 1018.78 1019.06 1019.30 1019.46 1019.50 1019.58 1019.70 1019.78 1019.78 1019.82 1019.82 1019.70 1019.86 1020.06 1020.38 1020.50 1020.66 1020.90 1020.98 1020.98 1021.02 1021.26 1020.98 1021.10 1021.62 1021.70 1021.66 1021.78 1021.70 1021.34 1021.02 1021.06 1021.26 1021.70 1021.86 1022.06 1022.22 1022.10 1022.22 1022.62 1022.66
1018.94 1018.78 1018.82 1018.98 1019.18 1019.34 1019.50 1019.58 1019.66 1019.66 1019.82 1019.90 1019.74 1019.74 1020.06 1020.34 1020.30 1020.18 1020.62 1020.82 1021.10 1021.34 1021.54 1021.26 1021.18 1021.50 1021.82 1021.78 1021.82 1021.78 1021.42 1020.98 1020.98 1021.10 1021.50 1021.82 1021.86 1022.18 1022.30 1022.30 1022.66 1023.02
1019.30 1019.14 1018.94 1018.90 1018.98 1019.26 1019.38 1019.30 1019.58 1019.74 1019.82 1019.82 1019.94 1019.94 1020.02 1020.26 1020.30 1020.14 1020.26 1020.66 1021.10 1021.14 1021.30 1021.38 1021.26 1021.26 1021.70 1021.90 1021.86 1021.82 1021.70 1021.10 1020.86 1020.94 1021.42 1021.90 1021.86 1021.90 1022.18 1022.50 1022.66 1022.98
Wind_Speed
6 6 6 6 5 5 5 5 4 5 4 4 5 4 4 3 3 3 3 3 3 5 4 4 4 3 3 3 4 4 4 4 4 3 3 3 4 4 4 4 5 5
7 6 5 5 4 4 3 4 5 6 5 4 4 4 3 4 3 3 3 4 4 4 4 5 4 4 4 4 4 4 4 4 4 3 3 5 3 4 4 5 5 4
6 7 7 8 7 8 6 4 6 5 5 5 5 4 4 3 4 3 3 3 4 4 3 3 4 4 4 4 4 4 4 4 4 3 4 4 3 4 3 3 4 4
7 8 8 7 7 8 7 6 4 3 4 5 5 4 4 4 5 5 4 4 4 4 3 3 3 3 3 4 4 4 4 4 3 3 3 3 3 3 3 3 3 3
8 6 5 6 6 6 6 7 7 5 5 4 4 4 4 4 5 5 4 4 4 4 3 3 3 3 3 3 3 4 4 4 3 2 2 3 2 2 1 1 2 3
6 6 6 7 7 7 6 6 6 5 5 5 5 4 3 3 3 5 5 4 3 3 4 3 3 3 2 3 2 2 2 2 3 2 2 2 3 1 1 0 2 2
7 6 7 6 7 7 6 6 6 7 6 5 5 5 5 5 4 5 5 5 4 4 3 3 3 3 2 2 2 2 2 1 1 1 2 2 2 3 2 1 1 2
6 5 5 6 7 7 6 6 7 7 8 8 7 6 5 5 5 5 5 6 6 5 3 2 2 3 3 2 2 2 2 1 1 1 2 1 2 2 3 2 2 2
6 6 6 7 7 7 7 7 6 7 7 7 7 7 6 5 6 5 6 6 6 5 4 3 2 1 1 2 2 0 1 1 1 1 2 3 3 3 2 2 3 3
6 6 8 7 7 6 8 7 7 7 7 7 7 7 7 5 6 7 7 7 5 5 4 3 2 1 1 0 0 1 0 1 0 2 3 3 4 5 4 3 4 4
6 6 5 5 6 6 8 8 7 6 5 6 6 6 6 5 5 5 7 6 5 4 4 3 3 2 2 2 2 2 3 3 2 3 4 5 4 5 5 6 6 6
6 7 7 3 4 5 7 7 7 6 6 4 5 6 5 3 3 4 5 5 5 6 5 4 3 2 3 4 6 4 3 3 2 3 3 4 5 5 6 6 7 8
6 7 7 7 7 6 5 6 6 6 7 7 6 6 6 4 3 3 2 2 4 4 3 3 3 4 2 3 5 5 5 4 3 4 4 4 5 6 6 7 7 7
5 7 7 7 5 5 5 6 6 6 5 5 5 5 4 5 4 4 4 4 4 3 3 2 2 1 2 4 4 5 4 4 4 4 4 4 5 5 5 6 7 7
6 6 7 8 7 7 7 6 5 5 5 5 5 4 3 3 3 3 2 2 3 3 3 3 3 2 1 2 4 5 4 5 4 4 4 4 5 5 5 5 6 5
6 6 6 6 6 6 6 5 5 5 5 5 5 3 3 3 3 2 1 1 1 2 2 1 1 0 2 2 4 4 5 4 4 4 4 4 4 5 4 2 3 6
5 5 4 4 4 4 3 4 5 5 5 4 4 3 3 3 3 3 2 1 1 1 2 2 1 2 7 3 1 2 3 4 4 4 4 4 5 5 5 3 5 7
4 4 3 2 1 1 2 3 4 4 4 3 3 4 4 4 4 3 3 3 2 3 3 3 3 5 4 4 2 0 2 3 3 3 3 3 4 4 4 2 3 5
3 3 3 2 2 2 3 3 4 5 5 6 5 4 4 5 4 4 4 4 4 4 3 3 2 4 4 4 3 2 1 2 1 3 3 3 3 3 4 4 3 4
3 3 3 3 3 3 3 3 3 3 3 3 4 4 4 4 4 5 4 4 3 3 3 3 3 2 0 3 4 3 2 3 0 1 2 3 3 3 3 4 3 4
5 5 5 4 4 4 4 4 4 4 4 3 2 3 3 4 4 4 3 3 3 2 3 3 2 2 2 4 6 6 5 3 3 2 2 2 3 3 4 3 3 2
5 5 5 5 5 4 5 4 3 3 4 3 3 3 3 3 3 3 3 3 2 2 3 4 3 2 3 6 6 7 6 4 3 3 2 2 2 3 2 2 2 2
5 6 5 4 3 4 4 4 4 3 2 2 4 4 4 3 3 2 2 2 3 2 3 3 3 4 6 5 6 6 4 3 3 3 3 3 3 3 3 4 4 3
6 7 7 5 4 4 4 3 3 3 4 3 6 6 5 4 4 3 2 2 2 3 3 2 2 4 6 6 3 3 1 3 2 3 4 4 3 3 3 5 8 11
3 5 7 7 7 5 5 5 4 3 2 1 2 3 4 3 3 4 3 2 2 2 3 1 2 3 5 6 4 2 2 2 2 3 3 3 3 4 4 5 6 9
2 3 5 6 6 5 5 5 4 3 3 2 1 2 3 2 2 2 3 3 2 2 2 1 1 2 4 5 4 1 5 1 2 2 3 4 3 4 5 5 6 7
Wind_Direction
165 169 158 160 154 144 143 141 140 137 129 133 141 141 133 123 133 124 118 120 115 116 113 107 101 91 81 70 49 55 61 52 50 38 61 82 93 100 98 88 76 82
174 165 150 141 132 129 128 131 138 142 137 138 132 129 122 132 128 132 132 130 128 120 124 124 118 112 103 92 78 75 70 56 59 27 56 58 58 68 79 86 91 94
169 165 160 160 157 155 153 144 139 152 141 141 137 145 142 142 132 123 124 129 126 123 120 119 116 111 108 105 103 98 92 87 76 49 53 53 29 57 69 83 91 86
187 178 170 159 147 149 149 145 141 137 126 144 159 153 152 148 142 134 133 134 123 115 108 113 113 110 109 113 114 104 106 99 86 86 96 86 59 62 63 62 63 72
185 183 160 137 138 141 151 152 151 152 152 144 129 136 154 152 149 137 129 120 123 123 123 120 128 121 129 123 121 117 122 116 112 105 101 109 106 94 88 72 82 78
190 180 162 151 146 149 157 162 145 137 131 136 143 138 115 99 114 117 116 118 116 113 113 118 117 120 125 115 114 101 113 112 117 144 123 109 119 124 121 129 121 124
181 184 157 146 144 152 159 155 142 141 142 137 137 132 133 143 139 128 119 109 100 95 106 118 121 121 125 131 116 90 67 41 105 174 177 141 151 152 159 186 131 123
172 167 156 151 150 151 153 155 155 152 148 148 140 142 161 146 139 133 131 127 116 112 106 96 109 113 119 112 115 123 115 106 341 312 284 216 188 195 165 171 186 178
158 160 160 156 152 151 157 162 159 152 157 150 146 145 157 156 149 145 129 122 120 126 128 121 114 113 94 73 76 76 89 126 163 191 248 266 266 257 225 178 196 199
166 163 161 158 157 157 158 165 165 163 164 154 150 155 161 165 157 146 128 123 127 128 124 130 140 164 142 119 273 295 248 259 256 254 237 244 267 282 275 239 236 218
152 150 146 152 158 164 165 167 168 159 151 140 145 154 155 153 147 137 141 149 137 146 149 164 173 173 221 265 255 214 256 249 246 265 278 271 257 254 256 259 249 239
150 127 114 149 192 182 174 169 163 163 149 142 149 149 154 172 155 160 164 165 146 157 181 180 160 218 262 278 284 269 240 222 217 229 244 265 272 265 258 245 243 240
135 140 165 173 182 190 170 163 166 160 153 146 153 161 167 167 161 152 168 150 142 162 185 185 181 176 205 258 271 267 265 257 235 227 228 233 244 250 248 248 248 247
121 136 151 166 173 166 156 160 157 158 146 135 145 154 153 158 162 183 172 158 144 154 145 153 155 173 228 245 256 262 261 257 253 245 249 249 254 253 245 241 240 241
131 139 157 169 164 161 166 162 153 141 136 139 150 164 167 147 164 185 176 141 116 126 138 140 157 166 235 270 269 270 268 266 253 248 256 273 272 268 257 253 249 247
134 145 164 168 160 177 170 153 151 150 152 156 163 167 138 126 137 150 155 150 141 126 123 115 98 145 84 338 307 294 285 285 288 284 279 274 276 272 264 252 347 285
144 157 168 189 172 170 147 144 147 149 154 153 145 141 137 138 141 142 142 138 147 140 118 102 89 69 52 57 193 246 260 268 275 282 277 271 269 275 280 255 249 257
142 150 171 187 206 138 120 114 121 136 141 144 153 158 151 150 148 146 147 141 124 93 95 101 102 61 54 66 42 263 243 246 259 272 275 276 279 280 291 291 292 290
136 163 161 164 154 118 127 133 138 145 152 157 154 145 138 131 117 117 114 106 106 106 90 81 84 48 40 51 60 11 314 254 237 257 271 276 288 296 306 314 312 300
107 110 105 92 102 116 127 127 128 114 113 103 111 123 121 114 117 115 117 117 111 107 114 122 127 121 228 131 118 117 157 218 92 307 311 314 318 322 317 316 315 309
83 83 84 77 73 74 79 80 80 84 82 84 100 107 118 119 119 120 109 124 131 134 117 104 90 91 32 88 107 114 137 161 71 65 42 17 358 342 327 321 320 312
55 77 72 71 74 79 86 87 80 83 101 94 92 85 74 87 77 77 101 99 93 128 132 117 114 111 79 97 109 123 141 93 86 82 77 69 58 38 19 11 4 357
82 70 58 52 65 92 98 105 113 112 108 129 120 123 121 112 101 94 90 94 100 91 96 110 108 37 25 80 124 156 165 108 117 107 91 83 58 39 41 40 31 23
140 138 138 134 136 136 136 139 143 151 153 176 153 147 139 134 139 127 114 93 89 86 50 63 82 41 6 19 106 194 240 110 107 100 98 92 89 61 60 64 50 31
164 155 150 152 155 161 159 151 153 142 125 150 129 132 128 143 147 134 127 113 84 78 65 32 71 72 41 13 21 186 236 119 117 111 110 99 104 92 80 85 79 57
232 190 168 165 162 160 167 160 149 148 156 151 123 138 141 136 140 127 127 107 99 97 102 54 48 65 51 22 1 316 292 302 127 123 122 124 117 118 110 96 93 87